Temp_Advection
nan nan nan nan nan nan nan nan nan nan nan nan nan nan nan nan nan nan nan nan nan nan
nan 0 -1 -1 -1 0 1 -0 1 1 0 0 0 0 -0 -0 -0 -0 0 0 -1 nan
nan -1 -0 -0 0 1 0 1 1 0 1 0 -0 0 -0 -0 -0 -0 -0 -0 -1 nan
nan -0 -0 -1 -0 -0 0 1 0 0 -0 -0 1 -0 0 0 -0 -1 -0 -0 -2 nan
nan -1 -1 -1 -0 -0 0 1 -0 -1 0 0 0 0 0 0 -1 -1 -1 -2 -2 nan
nan -2 -1 0 0 -1 -0 -0 -0 1 -0 0 0 -0 0 0 -1 -1 -1 -1 -1 nan
nan -1 -2 -1 -0 -0 -0 -0 0 -0 -0 0 0 0 0 0 0 -0 -0 -0 -0 nan
nan -1 -2 -2 -1 -0 -0 -0 0 0 0 0 0 -0 -0 -0 0 1 -0 -1 -0 nan
nan -1 -1 -2 -2 -1 -0 0 -0 -0 -0 -1 -1 -0 0 -0 0 -1 -1 0 -1 nan
nan -1 -1 -2 -3 -3 -1 -0 -1 -0 0 -0 -0 0 -0 -0 -1 -0 0 -1 -3 nan
nan -1 -1 -1 -2 -3 -2 -1 -1 0 -0 -1 0 -0 0 -0 1 0 -2 -1 -1 nan
nan 1 -1 -1 -2 -3 -3 -2 -1 -2 -2 -0 -0 -0 1 1 1 -0 -0 -1 1 nan
nan 0 0 -1 -1 -1 -2 -2 -1 -2 -1 -0 -1 -1 1 1 1 1 0 -0 -0 nan
nan nan nan nan nan nan nan nan nan nan nan nan nan nan nan nan nan nan nan nan nan nan
Wind_Speed
30 20 30 44 45 46 49 49 47 51 49 50 57 60 55 53 45 44 43 45 41 40
18 12 24 40 45 39 45 45 43 48 50 47 55 56 54 52 50 42 46 41 40 40
10 21 25 26 44 40 41 46 46 49 53 49 55 54 51 46 50 51 43 40 40 37
8 11 16 31 41 39 42 46 41 49 53 54 58 59 57 52 48 47 40 43 34 35
13 8 10 21 16 27 41 43 45 49 48 53 58 60 59 61 53 49 48 47 45 41
18 14 7 10 33 40 33 42 44 46 51 52 57 61 60 58 59 54 53 54 49 47
24 21 15 10 14 30 28 37 43 42 48 52 51 57 61 59 60 60 61 55 52 53
28 24 19 14 15 16 20 24 39 44 48 51 54 53 59 60 60 62 61 59 57 56
28 26 25 18 16 19 18 27 28 39 48 50 50 52 59 60 60 62 60 59 59 56
38 33 30 25 20 20 24 25 25 32 39 50 51 52 52 53 59 58 63 65 61 64
41 40 39 30 23 21 23 24 30 28 33 43 48 53 49 51 59 58 55 57 63 63
41 44 44 44 32 24 20 21 25 29 38 37 41 39 46 48 54 62 58 57 55 58
40 40 42 44 41 28 18 15 15 23 29 38 40 40 41 43 52 57 54 59 58 57
40 39 39 39 43 37 22 13 9 19 22 30 35 38 41 39 34 43 50 53 58 57
Wind_Direction
229 236 229 229 223 219 217 220 220 215 215 215 213 215 220 225 228 230 226 216 223 227
238 238 247 222 232 230 226 221 222 222 218 219 214 215 221 225 223 232 231 219 223 229
264 236 219 228 225 227 226 219 224 225 217 218 214 217 223 225 230 227 223 222 224 225
310 253 226 232 235 232 232 229 231 228 221 219 221 220 220 223 228 233 234 214 222 231
337 295 257 245 238 235 236 241 231 227 228 228 225 223 224 223 229 231 225 218 225 225
347 334 271 207 219 241 247 233 232 233 229 230 229 226 226 227 225 229 226 227 226 221
352 348 330 256 223 227 231 245 234 243 234 237 237 232 231 230 223 229 231 230 231 234
357 351 325 299 257 235 213 229 243 250 251 242 236 239 231 231 229 227 230 236 237 239
3 351 347 317 294 255 242 225 236 249 251 246 244 244 242 238 233 227 228 231 237 243
21 15 3 346 313 285 252 242 237 241 251 243 251 248 240 240 237 235 232 232 234 242
13 21 20 2 345 308 275 254 247 241 247 247 245 250 255 241 242 237 236 236 239 242
8 11 19 13 360 345 309 273 253 257 247 250 245 255 246 254 231 242 236 240 241 241
5 7 9 13 9 359 338 309 260 260 252 245 250 251 260 246 241 231 232 237 241 243
1 5 7 10 14 12 5 346 307 235 239 230 245 247 249 246 238 243 246 232 237 244
Height
1431 1428 1437 1440 1444 1446 1449 1452 1457 1464 1471 1478 1484 1489 1495 1500 1503 1507 1510 1514 1519 1525
1429 1428 1432 1436 1443 1442 1445 1449 1454 1458 1464 1469 1477 1482 1488 1494 1497 1500 1504 1508 1515 1520
1424 1426 1429 1431 1434 1435 1439 1445 1448 1451 1457 1462 1469 1475 1481 1487 1492 1493 1497 1504 1509 1513
1420 1422 1423 1425 1429 1429 1434 1439 1442 1446 1450 1454 1460 1465 1472 1479 1485 1487 1491 1497 1502 1507
1418 1417 1417 1417 1415 1423 1428 1432 1436 1439 1438 1447 1451 1456 1462 1469 1476 1480 1484 1489 1496 1501
1416 1413 1411 1411 1413 1417 1421 1423 1428 1433 1434 1437 1443 1448 1453 1460 1467 1473 1476 1481 1487 1493
1414 1410 1408 1407 1407 1412 1413 1418 1420 1424 1428 1431 1436 1441 1446 1450 1458 1464 1467 1474 1479 1485
1415 1409 1404 1402 1404 1404 1405 1410 1413 1417 1420 1424 1423 1430 1436 1441 1446 1453 1458 1463 1469 1474
1415 1409 1403 1398 1396 1396 1397 1401 1405 1409 1412 1414 1415 1419 1424 1429 1436 1441 1446 1452 1457 1462
1418 1412 1403 1396 1393 1391 1391 1392 1393 1396 1399 1407 1408 1410 1409 1420 1426 1428 1432 1439 1445 1450
1425 1415 1406 1400 1394 1390 1387 1386 1388 1389 1396 1396 1401 1403 1406 1405 1414 1424 1424 1428 1435 1440
1422 1412 1403 1398 1392 1387 1385 1382 1382 1382 1386 1387 1392 1397 1396 1402 1406 1414 1417 1419 1423 1429
1423 1415 1408 1401 1395 1387 1381 1378 1377 1378 1378 1382 1385 1385 1390 1393 1394 1398 1403 1411 1414 1419
1422 1418 1412 1403 1397 1388 1380 1377 1374 1374 1373 1371 1374 1379 1381 1387 1390 1391 1399 1399 1405 1408